| time (UTC) | temp F | wind direction | speed MPH | gust MPH | rain 1hr in | rain 24hr in | rain mn in | humidity % | barometer mb |
| 20260508052336 | 62 | 190 | 4.0 | 10.0 | 0.00 | 0.01 | 0.00 | 44 | 1013.8 |
| 20260508051835 | 62 | 200 | 5.0 | 11.0 | 0.00 | 0.01 | 0.00 | 44 | 1014.0 |
| 20260508051335 | 62 | 166 | 6.0 | 11.0 | 0.00 | 0.01 | 0.00 | 44 | 1014.0 |
| 20260508050834 | 61 | 186 | 4.0 | 9.0 | 0.00 | 0.01 | 0.00 | 44 | 1014.0 |
| 20260508050334 | 61 | 199 | 4.0 | 7.0 | 0.00 | 0.01 | 0.00 | 44 | 1014.0 |
| 20260508045836 | 61 | 138 | 4.0 | 7.0 | 0.00 | 0.01 | 0.01 | 43 | 1014.2 |
| 20260508045335 | 61 | 176 | 3.0 | 6.0 | 0.00 | 0.01 | 0.01 | 43 | 1014.0 |
| 20260508044834 | 61 | 186 | 2.0 | 6.0 | 0.00 | 0.01 | 0.01 | 43 | 1014.2 |
| 20260508044334 | 62 | 169 | 2.0 | 9.0 | 0.00 | 0.01 | 0.01 | 42 | 1014.2 |
| 20260508043836 | 62 | 206 | 3.0 | 9.0 | 0.00 | 0.01 | 0.01 | 42 | 1014.3 |
| 20260508043334 | 62 | 166 | 4.0 | 7.0 | 0.00 | 0.01 | 0.01 | 42 | 1014.3 |
| 20260508042835 | 62 | 148 | 3.0 | 7.0 | 0.00 | 0.01 | 0.01 | 41 | 1014.3 |
| 20260508042335 | 62 | 185 | 4.0 | 7.0 | 0.00 | 0.01 | 0.01 | 41 | 1014.3 |
| 20260508041834 | 62 | 141 | 4.0 | 7.0 | 0.00 | 0.01 | 0.01 | 40 | 1014.2 |
| 20260508041334 | 62 | 164 | 3.0 | 5.0 | 0.00 | 0.01 | 0.01 | 40 | 1014.2 |
| 20260508040837 | 62 | 162 | 2.0 | 4.0 | 0.00 | 0.01 | 0.01 | 39 | 1014.2 |
| 20260508040718 | 62 | 147 | 2.0 | 4.0 | 0.00 | 0.01 | 0.01 | 40 | 1014.2 |
| 20260508040109 | 63 | 145 | 2.0 | 4.0 | 0.00 | 0.01 | 0.01 | 38 | 1014.0 |
| 20260508040001 | 62 | 148 | 0.0 | 4.0 | 0.00 | 0.01 | 0.01 | 38 | 1014.2 |
| 20260508035221 | 63 | 155 | 2.0 | 4.0 | 0.00 | 0.01 | 0.01 | 37 | 1014.2 |
| 20260508034334 | 63 | 172 | 2.0 | 4.0 | 0.00 | 0.01 | 0.01 | 37 | 1014.2 |
| 20260508033835 | 63 | 133 | 1.0 | 4.0 | 0.00 | 0.01 | 0.01 | 36 | 1014.2 |
| 20260508033334 | 63 | 180 | 2.0 | 5.0 | 0.00 | 0.01 | 0.01 | 36 | 1014.2 |
| 20260508032834 | 64 | 176 | 1.0 | 5.0 | 0.00 | 0.01 | 0.01 | 35 | 1014.2 |
| 20260508032718 | 64 | 178 | 2.0 | 4.0 | 0.00 | 0.01 | 0.01 | 35 | 1014.0 |
| 20260508031837 | 64 | 166 | 1.0 | 4.0 | 0.00 | 0.01 | 0.01 | 35 | 1013.9 |
| 20260508031335 | 65 | 147 | 1.0 | 4.0 | 0.00 | 0.01 | 0.01 | 34 | 1013.7 |
| 20260508030834 | 64 | 162 | 2.0 | 4.0 | 0.00 | 0.01 | 0.01 | 34 | 1013.8 |
| 20260508030336 | 65 | 152 | 2.0 | 4.0 | 0.00 | 0.01 | 0.01 | 34 | 1013.8 |
| 20260508025834 | 64 | 162 | 2.0 | 4.0 | 0.00 | 0.01 | 0.01 | 35 | 1013.6 |
| 20260508025335 | 64 | 165 | 0.0 | 3.0 | 0.00 | 0.01 | 0.01 | 36 | 1013.5 |
| 20260508025223 | 64 | 147 | 1.0 | 3.0 | 0.00 | 0.01 | 0.01 | 37 | 1013.5 |
| 20260508024334 | 64 | 155 | 0.0 | 0.0 | 0.00 | 0.01 | 0.01 | 36 | 1013.3 |
| 20260508023836 | 64 | 149 | 0.0 | 0.0 | 0.00 | 0.01 | 0.01 | 36 | 1013.3 |
| 20260508023716 | 64 | 148 | 0.0 | 0.0 | 0.00 | 0.01 | 0.01 | 36 | 1013.3 |
| 20260508022834 | 64 | 158 | 0.0 | 0.0 | 0.00 | 0.01 | 0.01 | 35 | 1013.3 |
| 20260508022334 | 65 | 182 | 0.0 | 0.0 | 0.00 | 0.01 | 0.01 | 35 | 1013.3 |
| 20260508021834 | 66 | 182 | 0.0 | 2.0 | 0.00 | 0.01 | 0.01 | 35 | 1013.2 |
| 20260508021334 | 67 | 179 | 0.0 | 2.0 | 0.00 | 0.01 | 0.01 | 33 | 1013.2 |
| 20260508020837 | 67 | 196 | 0.0 | 4.0 | 0.00 | 0.01 | 0.01 | 32 | 1013.0 |
| 20260508020334 | 68 | 186 | 1.0 | 4.0 | 0.00 | 0.01 | 0.01 | 31 | 1012.9 |
| 20260508015835 | 69 | 178 | 1.0 | 3.0 | 0.00 | 0.01 | 0.01 | 30 | 1013.0 |
| 20260508015334 | 70 | 166 | 1.0 | 5.0 | 0.00 | 0.01 | 0.01 | 30 | 1012.9 |
| 20260508014834 | 70 | 162 | 2.0 | 5.0 | 0.00 | 0.01 | 0.01 | 30 | 1012.8 |
| 20260508014334 | 70 | 216 | 2.0 | 5.0 | 0.00 | 0.01 | 0.01 | 30 | 1012.9 |
| 20260508013834 | 70 | 175 | 2.0 | 6.0 | 0.00 | 0.01 | 0.01 | 29 | 1012.7 |
| 20260508013335 | 71 | 220 | 4.0 | 9.0 | 0.00 | 0.01 | 0.01 | 29 | 1012.9 |
| 20260508012836 | 71 | 209 | 3.0 | 10.0 | 0.00 | 0.01 | 0.01 | 29 | 1012.9 |
| 20260508012721 | 71 | 212 | 4.0 | 13.0 | 0.00 | 0.01 | 0.01 | 29 | 1012.9 |
| 20260508011836 | 71 | 195 | 6.0 | 13.0 | 0.00 | 0.01 | 0.01 | 29 | 1012.8 |
| 20260508011334 | 72 | 209 | 4.0 | 11.0 | 0.00 | 0.01 | 0.01 | 28 | 1012.7 |
| 20260508011224 | 71 | 197 | 2.0 | 11.0 | 0.00 | 0.01 | 0.01 | 30 | 1012.8 |
| 20260508010334 | 71 | 219 | 2.0 | 11.0 | 0.00 | 0.01 | 0.01 | 29 | 1012.7 |
| 20260508005834 | 72 | 214 | 4.0 | 6.0 | 0.00 | 0.01 | 0.01 | 31 | 1012.8 |
| 20260508005716 | 72 | 210 | 3.0 | 16.0 | 0.00 | 0.01 | 0.01 | 27 | 1012.6 |
| 20260508005021 | 73 | 212 | 4.0 | 13.0 | 0.00 | 0.01 | 0.01 | 27 | 1012.7 |
| 20260508005014 | 73 | 213 | 6.0 | 13.0 | 0.00 | 0.01 | 0.01 | 26 | 1012.7 |
| 20260508004927 | 73 | 210 | 4.0 | 16.0 | 0.00 | 0.01 | 0.01 | 30 | 1012.6 |
| 20260508003334 | 73 | 241 | 6.0 | 13.0 | 0.00 | 0.01 | 0.01 | 27 | 1012.7 |
| 20260508002834 | 73 | 180 | 6.0 | 13.0 | 0.00 | 0.01 | 0.01 | 27 | 1012.6 |
| 20260508002334 | 73 | 237 | 3.0 | 15.0 | 0.00 | 0.01 | 0.01 | 29 | 1012.6 |
| 20260508001837 | 74 | 204 | 7.0 | 15.0 | 0.00 | 0.01 | 0.01 | 26 | 1012.6 |
| 20260508001333 | 73 | 209 | 2.0 | 11.0 | 0.00 | 0.01 | 0.01 | 27 | 1012.6 |
| 20260508000836 | 73 | 197 | 3.0 | 11.0 | 0.00 | 0.01 | 0.01 | 28 | 1012.6 |
| 20260508000336 | 74 | 133 | 5.0 | 11.0 | 0.00 | 0.01 | 0.01 | 28 | 1012.6 |
| 20260507235834 | 74 | 207 | 7.0 | 11.0 | 0.00 | 0.01 | 0.01 | 27 | 1012.6 |
| 20260507235334 | 74 | 190 | 4.0 | 9.0 | 0.00 | 0.01 | 0.01 | 30 | 1012.5 |
| 20260507235220 | 74 | 220 | 4.0 | 11.0 | 0.00 | 0.01 | 0.01 | 26 | 1012.5 |
| 20260507234720 | 74 | 233 | 5.0 | 11.0 | 0.00 | 0.01 | 0.01 | 27 | 1012.5 |
| 20260507234115 | 74 | 247 | 6.0 | 14.0 | 0.00 | 0.01 | 0.01 | 28 | 1012.7 |
| 20260507234002 | 74 | 261 | 6.0 | 11.0 | 0.00 | 0.01 | 0.01 | 30 | 1012.7 |
| 20260507232834 | 75 | 247 | 8.0 | 14.0 | 0.00 | 0.01 | 0.01 | 27 | 1012.9 |
| 20260507232336 | 75 | 234 | 5.0 | 12.0 | 0.00 | 0.01 | 0.01 | 27 | 1012.9 |
| 20260507231834 | 75 | 196 | 4.0 | 9.0 | 0.00 | 0.01 | 0.01 | 27 | 1012.9 |
| 20260507231336 | 75 | 227 | 4.0 | 7.0 | 0.00 | 0.01 | 0.01 | 25 | 1012.9 |
| 20260507231226 | 75 | 251 | 3.0 | 11.0 | 0.00 | 0.01 | 0.01 | 27 | 1013.0 |
| 20260507230336 | 75 | 179 | 5.0 | 11.0 | 0.00 | 0.01 | 0.01 | 25 | 1013.0 |
| 20260507225835 | 75 | 234 | 5.0 | 12.0 | 0.00 | 0.01 | 0.01 | 26 | 1013.2 |
| 20260507225334 | 75 | 219 | 6.0 | 12.0 | 0.00 | 0.01 | 0.01 | 25 | 1013.3 |
| 20260507224834 | 76 | 154 | 7.0 | 13.0 | 0.00 | 0.01 | 0.01 | 25 | 1013.4 |
| 20260507224334 | 76 | 275 | 5.0 | 13.0 | 0.00 | 0.01 | 0.01 | 25 | 1013.4 |
| 20260507223835 | 76 | 202 | 5.0 | 14.0 | 0.00 | 0.01 | 0.01 | 24 | 1013.4 |
| 20260507223334 | 76 | 235 | 5.0 | 14.0 | 0.00 | 0.01 | 0.01 | 25 | 1013.5 |
| 20260507222834 | 76 | 271 | 8.0 | 15.0 | 0.00 | 0.01 | 0.01 | 25 | 1013.4 |
| 20260507222335 | 76 | 140 | 8.0 | 15.0 | 0.00 | 0.01 | 0.01 | 26 | 1013.5 |
| 20260507222220 | 76 | 321 | 3.0 | 9.0 | 0.00 | 0.01 | 0.01 | 26 | 1013.5 |
| 20260507221336 | 75 | 295 | 5.0 | 11.0 | 0.00 | 0.01 | 0.01 | 26 | 1013.6 |
| 20260507221218 | 76 | 186 | 3.0 | 11.0 | 0.00 | 0.01 | 0.01 | 26 | 1013.7 |
| 20260507220333 | 75 | 197 | 2.0 | 10.0 | 0.00 | 0.01 | 0.01 | 25 | 1013.7 |
| 20260507215835 | 75 | 244 | 3.0 | 10.0 | 0.00 | 0.01 | 0.01 | 26 | 1013.7 |
| 20260507215728 | 75 | 251 | 5.0 | 11.0 | 0.00 | 0.01 | 0.01 | 26 | 1013.9 |
| 20260507215213 | 75 | 212 | 4.0 | 11.0 | 0.00 | 0.01 | 0.01 | 27 | 1013.8 |
| 20260507214330 | 75 | 212 | 2.0 | 10.0 | 0.00 | 0.01 | 0.01 | 28 | 1014.0 |
| 20260507213830 | 75 | 175 | 5.0 | 10.0 | 0.00 | 0.01 | 0.01 | 27 | 1014.0 |
| 20260507213330 | 74 | 240 | 4.0 | 17.0 | 0.00 | 0.01 | 0.01 | 27 | 1014.3 |
| 20260507212831 | 75 | 224 | 7.0 | 17.0 | 0.00 | 0.01 | 0.01 | 30 | 1014.4 |
| 20260507212329 | 74 | 250 | 6.0 | 12.0 | 0.00 | 0.01 | 0.01 | 28 | 1014.3 |
| 20260507211830 | 74 | 176 | 5.0 | 10.0 | 0.00 | 0.01 | 0.01 | 27 | 1014.4 |
| 20260507211330 | 74 | 233 | 7.0 | 12.0 | 0.00 | 0.01 | 0.01 | 28 | 1014.6 |
| 20260507210830 | 75 | 212 | 4.0 | 12.0 | 0.00 | 0.01 | 0.01 | 28 | 1014.7 |
| 20260507210329 | 75 | 137 | 4.0 | 13.0 | 0.00 | 0.01 | 0.01 | 28 | 1014.7 |
| 20260507205832 | 75 | 241 | 7.0 | 13.0 | 0.00 | 0.01 | 0.01 | 31 | 1014.8 |
| 20260507205327 | 74 | 244 | 7.0 | 12.0 | 0.00 | 0.01 | 0.01 | 29 | 1015.1 |
| 20260507204830 | 75 | 252 | 8.0 | 14.0 | 0.00 | 0.01 | 0.01 | 32 | 1015.1 |
| 20260507204328 | 74 | 296 | 4.0 | 14.0 | 0.00 | 0.01 | 0.01 | 29 | 1015.2 |
| 20260507203828 | 74 | 233 | 4.0 | 16.0 | 0.00 | 0.01 | 0.01 | 30 | 1015.3 |
| 20260507203712 | 74 | 258 | 7.0 | 16.0 | 0.00 | 0.01 | 0.01 | 29 | 1015.5 |
| 20260507202826 | 74 | 200 | 5.0 | 15.0 | 0.00 | 0.01 | 0.01 | 32 | 1015.4 |
| 20260507202328 | 74 | 192 | 6.0 | 12.0 | 0.00 | 0.01 | 0.01 | 31 | 1015.4 |
| 20260507201827 | 73 | 231 | 4.0 | 11.0 | 0.00 | 0.01 | 0.01 | 38 | 1015.6 |
| 20260507201720 | 72 | 226 | 3.0 | 13.0 | 0.00 | 0.01 | 0.01 | 36 | 1015.7 |
| 20260507200825 | 72 | 245 | 6.0 | 15.0 | 0.00 | 0.01 | 0.01 | 32 | 1015.9 |
| 20260507200325 | 73 | 180 | 6.0 | 15.0 | 0.00 | 0.01 | 0.01 | 32 | 1015.9 |
| 20260507195825 | 73 | 321 | 4.0 | 15.0 | 0.00 | 0.01 | 0.01 | 35 | 1016.1 |
| 20260507195327 | 73 | 237 | 4.0 | 15.0 | 0.00 | 0.01 | 0.01 | 34 | 1016.3 |
| 20260507194825 | 71 | 278 | 6.0 | 11.0 | 0.00 | 0.01 | 0.01 | 34 | 1016.3 |
| 20260507194325 | 71 | 231 | 3.0 | 15.0 | 0.00 | 0.01 | 0.01 | 36 | 1016.4 |
| 20260507193823 | 72 | 193 | 4.0 | 15.0 | 0.00 | 0.01 | 0.01 | 35 | 1016.4 |
| 20260507193322 | 73 | 217 | 3.0 | 12.0 | 0.00 | 0.01 | 0.01 | 35 | 1016.5 |
| 20260507192917 | 72 | 200 | 6.0 | 12.0 | 0.00 | 0.01 | 0.01 | 36 | 1016.6 |
| 20260507192453 | 73 | 276 | 7.0 | 12.0 | 0.00 | 0.01 | 0.01 | 38 | 1016.7 |
| 20260507191707 | 71 | 262 | 7.0 | 15.0 | 0.00 | 0.01 | 0.01 | 36 | 1016.9 |
| 20260507190817 | 71 | 326 | 5.0 | 11.0 | 0.00 | 0.01 | 0.01 | 37 | 1017.1 |
| 20260507190319 | 71 | 258 | 6.0 | 15.0 | 0.00 | 0.01 | 0.01 | 38 | 1017.1 |
| 20260507185816 | 70 | 227 | 4.0 | 15.0 | 0.00 | 0.01 | 0.01 | 41 | 1017.2 |
| 20260507185317 | 69 | 223 | 7.0 | 15.0 | 0.00 | 0.01 | 0.01 | 42 | 1017.4 |
| 20260507184816 | 69 | 131 | 6.0 | 15.0 | 0.00 | 0.01 | 0.01 | 42 | 1017.4 |
| 20260507184317 | 69 | 217 | 4.0 | 11.0 | 0.00 | 0.01 | 0.01 | 42 | 1017.4 |
| 20260507183816 | 70 | 200 | 4.0 | 11.0 | 0.00 | 0.01 | 0.01 | 45 | 1017.6 |
| 20260507183316 | 68 | 235 | 5.0 | 14.0 | 0.00 | 0.01 | 0.01 | 45 | 1017.7 |
| 20260507182815 | 69 | 207 | 8.0 | 14.0 | 0.00 | 0.01 | 0.01 | 42 | 1018.0 |
| 20260507182315 | 67 | 244 | 5.0 | 12.0 | 0.00 | 0.01 | 0.01 | 47 | 1018.0 |
| 20260507181814 | 67 | 199 | 6.0 | 12.0 | 0.00 | 0.01 | 0.01 | 45 | 1018.2 |
| 20260507181314 | 66 | 238 | 6.0 | 12.0 | 0.00 | 0.01 | 0.01 | 46 | 1018.2 |
| 20260507180813 | 67 | 255 | 6.0 | 13.0 | 0.00 | 0.01 | 0.01 | 47 | 1018.3 |
| 20260507180312 | 67 | 195 | 5.0 | 13.0 | 0.00 | 0.01 | 0.01 | 48 | 1018.4 |
| 20260507175812 | 66 | 254 | 4.0 | 13.0 | 0.00 | 0.01 | 0.01 | 49 | 1018.5 |
| 20260507175315 | 67 | 230 | 6.0 | 13.0 | 0.00 | 0.01 | 0.01 | 51 | 1018.5 |
| 20260507174816 | 66 | 203 | 6.0 | 14.0 | 0.00 | 0.01 | 0.01 | 51 | 1018.6 |
| 20260507174311 | 65 | 235 | 8.0 | 14.0 | 0.00 | 0.01 | 0.01 | 51 | 1018.7 |
| 20260507173810 | 65 | 271 | 7.0 | 14.0 | 0.00 | 0.01 | 0.01 | 51 | 1018.8 |
| 20260507173310 | 64 | 196 | 7.0 | 14.0 | 0.00 | 0.01 | 0.01 | 52 | 1019.0 |
| 20260507172811 | 63 | 238 | 6.0 | 14.0 | 0.00 | 0.01 | 0.01 | 54 | 1019.1 |
| 20260507172310 | 63 | 180 | 9.0 | 14.0 | 0.00 | 0.01 | 0.01 | 51 | 1019.1 |
| 20260507171807 | 64 | 235 | 6.0 | 14.0 | 0.00 | 0.01 | 0.01 | 51 | 1019.2 |
| 20260507171308 | 64 | 252 | 7.0 | 14.0 | 0.00 | 0.01 | 0.01 | 52 | 1019.4 |
| 20260507170809 | 62 | 213 | 6.0 | 14.0 | 0.00 | 0.01 | 0.01 | 56 | 1019.4 |
| 20260507170658 | 62 | 212 | 7.0 | 14.0 | 0.00 | 0.01 | 0.01 | 54 | 1019.5 |
| 20260507165807 | 62 | 240 | 4.0 | 14.0 | 0.00 | 0.01 | 0.01 | 56 | 1019.5 |
| 20260507165649 | 61 | 259 | 4.0 | 14.0 | 0.00 | 0.01 | 0.01 | 56 | 1019.6 |
| 20260507164806 | 61 | 258 | 6.0 | 14.0 | 0.00 | 0.01 | 0.01 | 58 | 1019.8 |
| 20260507164306 | 61 | 207 | 6.0 | 14.0 | 0.00 | 0.01 | 0.01 | 58 | 1019.7 |
| 20260507163806 | 60 | 306 | 7.0 | 14.0 | 0.00 | 0.01 | 0.01 | 60 | 1019.8 |
| 20260507163656 | 59 | 269 | 5.0 | 14.0 | 0.00 | 0.01 | 0.01 | 60 | 1020.0 |
| 20260507163150 | 59 | 276 | 7.0 | 14.0 | 0.00 | 0.01 | 0.01 | 60 | 1020.0 |
| 20260507162307 | 59 | 176 | 7.0 | 14.0 | 0.00 | 0.01 | 0.01 | 60 | 1020.1 |
| 20260507162149 | 59 | 272 | 6.0 | 14.0 | 0.00 | 0.01 | 0.01 | 61 | 1020.1 |
| 20260507161302 | 58 | 268 | 4.0 | 13.0 | 0.00 | 0.01 | 0.01 | 62 | 1020.1 |
| 20260507160801 | 57 | 226 | 6.0 | 13.0 | 0.00 | 0.01 | 0.01 | 63 | 1020.1 |
| 20260507160649 | 56 | 238 | 7.0 | 12.0 | 0.00 | 0.01 | 0.01 | 63 | 1020.1 |
| 20260507155800 | 57 | 235 | 6.0 | 12.0 | 0.00 | 0.01 | 0.01 | 66 | 1020.2 |
| 20260507155259 | 57 | 213 | 6.0 | 11.0 | 0.00 | 0.01 | 0.01 | 66 | 1020.2 |
| 20260507154800 | 56 | 216 | 4.0 | 9.0 | 0.00 | 0.01 | 0.01 | 66 | 1020.2 |
| 20260507154541 | 55 | 165 | 4.0 | 11.0 | 0.00 | 0.01 | 0.01 | 70 | 1020.1 |
| 20260507154428 | 55 | 295 | 4.0 | 9.0 | 0.00 | 0.01 | 0.01 | 68 | 1020.2 |
| 20260507153648 | 54 | 164 | 4.0 | 11.0 | 0.00 | 0.01 | 0.01 | 73 | 1020.2 |
| 20260507152756 | 53 | 217 | 5.0 | 9.0 | 0.00 | 0.01 | 0.01 | 74 | 1020.2 |
| 20260507152300 | 52 | 227 | 5.0 | 10.0 | 0.00 | 0.01 | 0.01 | 77 | 1020.3 |
| 20260507151755 | 52 | 224 | 5.0 | 10.0 | 0.00 | 0.01 | 0.01 | 77 | 1020.4 |
| 20260507151651 | 51 | 288 | 4.0 | 10.0 | 0.00 | 0.01 | 0.01 | 81 | 1020.5 |
| 20260507150756 | 50 | 175 | 3.0 | 10.0 | 0.00 | 0.01 | 0.01 | 81 | 1020.6 |
| 20260507150253 | 49 | 266 | 5.0 | 10.0 | 0.00 | 0.01 | 0.01 | 81 | 1020.7 |
| 20260507145753 | 49 | 258 | 6.0 | 11.0 | 0.00 | 0.01 | 0.01 | 83 | 1020.6 |
| 20260507145255 | 48 | 268 | 4.0 | 11.0 | 0.00 | 0.01 | 0.01 | 85 | 1020.6 |
| 20260507144751 | 47 | 261 | 3.0 | 10.0 | 0.00 | 0.01 | 0.01 | 86 | 1020.7 |
| 20260507144638 | 47 | 286 | 6.0 | 10.0 | 0.00 | 0.01 | 0.01 | 87 | 1020.9 |
| 20260507143749 | 46 | 186 | 2.0 | 10.0 | 0.00 | 0.01 | 0.01 | 88 | 1020.9 |
| 20260507143249 | 45 | 237 | 4.0 | 10.0 | 0.00 | 0.01 | 0.01 | 88 | 1020.9 |
| 20260507142847 | 45 | 261 | 5.0 | 11.0 | 0.00 | 0.01 | 0.01 | 90 | 1021.1 |
| 20260507142422 | 44 | 233 | 5.0 | 11.0 | 0.00 | 0.01 | 0.01 | 89 | 1021.1 |
| 20260507141247 | 44 | 243 | 3.0 | 7.0 | 0.00 | 0.01 | 0.01 | 91 | 1021.1 |
| 20260507140749 | 44 | 226 | 4.0 | 6.0 | 0.00 | 0.01 | 0.01 | 91 | 1021.1 |
| 20260507140247 | 44 | 247 | 3.0 | 6.0 | 0.00 | 0.01 | 0.01 | 92 | 1021.0 |
| 20260507140138 | 43 | 245 | 2.0 | 6.0 | 0.00 | 0.01 | 0.01 | 92 | 1021.0 |
| 20260507135247 | 43 | 247 | 4.0 | 10.0 | 0.00 | 0.01 | 0.01 | 92 | 1021.1 |
| 20260507134745 | 43 | 234 | 4.0 | 10.0 | 0.00 | 0.01 | 0.01 | 92 | 1021.2 |
| 20260507134247 | 42 | 285 | 4.0 | 9.0 | 0.00 | 0.01 | 0.01 | 92 | 1021.2 |
| 20260507133746 | 42 | 274 | 5.0 | 9.0 | 0.00 | 0.01 | 0.01 | 92 | 1021.3 |
| 20260507133246 | 42 | 257 | 4.0 | 7.0 | 0.00 | 0.01 | 0.01 | 92 | 1021.2 |
| 20260507132746 | 42 | 241 | 4.0 | 5.0 | 0.00 | 0.01 | 0.01 | 92 | 1021.3 |
| 20260507132632 | 42 | 272 | 3.0 | 9.0 | 0.00 | 0.01 | 0.01 | 92 | 1021.3 |
| 20260507131742 | 42 | 350 | 2.0 | 9.0 | 0.00 | 0.01 | 0.01 | 92 | 1021.2 |
| 20260507131242 | 42 | 221 | 3.0 | 9.0 | 0.00 | 0.01 | 0.01 | 92 | 1021.2 |
| 20260507130741 | 42 | 261 | 3.0 | 9.0 | 0.00 | 0.01 | 0.01 | 92 | 1021.1 |
| 20260507130625 | 42 | 264 | 3.0 | 7.0 | 0.00 | 0.01 | 0.01 | 93 | 1021.1 |
| 20260507130133 | 42 | 230 | 2.0 | 6.0 | 0.00 | 0.01 | 0.01 | 92 | 1021.1 |
| 20260507125240 | 42 | 266 | 2.0 | 5.0 | 0.00 | 0.01 | 0.01 | 93 | 1021.1 |
| 20260507124740 | 42 | 292 | 3.0 | 5.0 | 0.00 | 0.01 | 0.01 | 93 | 1021.0 |
| 20260507124238 | 42 | 285 | 2.0 | 6.0 | 0.00 | 0.01 | 0.01 | 93 | 1021.0 |
| 20260507123738 | 42 | 262 | 3.0 | 6.0 | 0.00 | 0.01 | 0.01 | 92 | 1021.0 |
| 20260507123237 | 42 | 288 | 2.0 | 6.0 | 0.00 | 0.01 | 0.01 | 93 | 1021.0 |
| 20260507122737 | 41 | 252 | 2.0 | 9.0 | 0.00 | 0.01 | 0.01 | 93 | 1021.0 |
| 20260507122621 | 41 | 0 | 3.0 | 10.0 | 0.00 | 0.01 | 0.01 | 92 | 1020.9 |
| 20260507121737 | 41 | 255 | 5.0 | 10.0 | 0.00 | 0.01 | 0.01 | 92 | 1020.9 |
| 20260507121240 | 41 | 307 | 3.0 | 9.0 | 0.00 | 0.01 | 0.01 | 92 | 1020.9 |
| 20260507120738 | 41 | 264 | 4.0 | 9.0 | 0.00 | 0.01 | 0.01 | 92 | 1020.7 |
| 20260507120238 | 42 | 299 | 2.0 | 7.0 | 0.00 | 0.01 | 0.01 | 92 | 1020.7 |
| 20260507115736 | 42 | 305 | 2.0 | 7.0 | 0.00 | 0.01 | 0.01 | 92 | 1020.7 |
| 20260507115237 | 42 | 306 | 3.0 | 6.0 | 0.00 | 0.01 | 0.01 | 92 | 1020.7 |
| 20260507114735 | 42 | 275 | 3.0 | 6.0 | 0.00 | 0.01 | 0.01 | 92 | 1020.6 |
| 20260507114235 | 41 | 295 | 2.0 | 6.0 | 0.00 | 0.01 | 0.01 | 92 | 1020.6 |
| 20260507114125 | 41 | 281 | 2.0 | 7.0 | 0.00 | 0.01 | 0.01 | 92 | 1020.6 |
| 20260507113235 | 41 | 240 | 3.0 | 7.0 | 0.00 | 0.01 | 0.01 | 92 | 1020.6 |
| 20260507112734 | 41 | 317 | 4.0 | 6.0 | 0.00 | 0.01 | 0.01 | 92 | 1020.5 |
| 20260507112236 | 42 | 330 | 3.0 | 7.0 | 0.00 | 0.01 | 0.01 | 92 | 1020.5 |
| 20260507112126 | 42 | 357 | 3.0 | 7.0 | 0.00 | 0.01 | 0.01 | 92 | 1020.6 |
| 20260507111621 | 41 | 299 | 3.0 | 7.0 | 0.00 | 0.01 | 0.01 | 92 | 1020.7 |
| 20260507110735 | 41 | 305 | 4.0 | 7.0 | 0.00 | 0.01 | 0.01 | 92 | 1020.6 |
| 20260507110235 | 42 | 282 | 1.0 | 7.0 | 0.00 | 0.01 | 0.01 | 92 | 1020.6 |
| 20260507105733 | 42 | 312 | 2.0 | 6.0 | 0.00 | 0.01 | 0.01 | 92 | 1020.5 |
| 20260507105234 | 42 | 262 | 1.0 | 6.0 | 0.00 | 0.01 | 0.01 | 92 | 1020.5 |
| 20260507104733 | 42 | 245 | 3.0 | 6.0 | 0.00 | 0.01 | 0.01 | 91 | 1020.6 |
| 20260507104234 | 42 | 247 | 3.0 | 6.0 | 0.00 | 0.01 | 0.01 | 91 | 1020.7 |
| 20260507103734 | 42 | 255 | 2.0 | 6.0 | 0.00 | 0.01 | 0.01 | 91 | 1020.7 |
| 20260507103234 | 42 | 289 | 2.0 | 7.0 | 0.00 | 0.01 | 0.01 | 91 | 1020.7 |
| 20260507103120 | 42 | 268 | 3.0 | 7.0 | 0.00 | 0.01 | 0.01 | 91 | 1020.7 |
| 20260507102233 | 42 | 323 | 2.0 | 7.0 | 0.00 | 0.01 | 0.01 | 91 | 1020.7 |
| 20260507102119 | 42 | 323 | 1.0 | 7.0 | 0.00 | 0.01 | 0.01 | 91 | 1020.9 |
| 20260507101236 | 42 | 0 | 3.0 | 7.0 | 0.00 | 0.01 | 0.01 | 91 | 1020.7 |
| 20260507100734 | 42 | 347 | 3.0 | 5.0 | 0.00 | 0.01 | 0.01 | 91 | 1020.7 |
| 20260507100233 | 42 | 324 | 1.0 | 5.0 | 0.00 | 0.01 | 0.01 | 91 | 1020.7 |
| 20260507095733 | 42 | 300 | 1.0 | 7.0 | 0.00 | 0.01 | 0.01 | 91 | 1020.9 |
| 20260507095233 | 42 | 259 | 4.0 | 7.0 | 0.00 | 0.01 | 0.01 | 91 | 1020.9 |
| 20260507094733 | 42 | 331 | 3.0 | 6.0 | 0.00 | 0.01 | 0.01 | 91 | 1020.9 |
| 20260507094235 | 42 | 321 | 3.0 | 6.0 | 0.00 | 0.01 | 0.01 | 91 | 1020.7 |
| 20260507093733 | 43 | 329 | 3.0 | 4.0 | 0.00 | 0.01 | 0.01 | 91 | 1020.9 |
| 20260507093233 | 43 | 309 | 2.0 | 4.0 | 0.00 | 0.01 | 0.01 | 91 | 1020.9 |
| 20260507092735 | 43 | 298 | 2.0 | 4.0 | 0.00 | 0.01 | 0.01 | 90 | 1020.9 |
| 20260507092616 | 43 | 289 | 1.0 | 4.0 | 0.00 | 0.01 | 0.01 | 91 | 1020.9 |
| 20260507091733 | 43 | 327 | 1.0 | 4.0 | 0.00 | 0.01 | 0.01 | 90 | 1020.9 |
| 20260507091233 | 43 | 353 | 3.0 | 4.0 | 0.00 | 0.01 | 0.01 | 91 | 1020.9 |
| 20260507090733 | 43 | 340 | 1.0 | 6.0 | 0.00 | 0.01 | 0.01 | 91 | 1020.9 |
| 20260507090232 | 43 | 341 | 2.0 | 6.0 | 0.00 | 0.01 | 0.01 | 90 | 1020.6 |
| 20260507085733 | 43 | 330 | 2.0 | 4.0 | 0.00 | 0.01 | 0.01 | 90 | 1020.7 |
| 20260507085234 | 43 | 340 | 1.0 | 4.0 | 0.00 | 0.01 | 0.01 | 90 | 1020.7 |
| 20260507084734 | 43 | 334 | 1.0 | 6.0 | 0.00 | 0.01 | 0.01 | 90 | 1020.6 |
| 20260507084235 | 42 | 344 | 4.0 | 6.0 | 0.00 | 0.01 | 0.01 | 90 | 1020.4 |
| 20260507083733 | 42 | 140 | 0.0 | 4.0 | 0.00 | 0.01 | 0.01 | 90 | 1020.3 |
| 20260507083614 | 42 | 118 | 0.0 | 4.0 | 0.00 | 0.01 | 0.01 | 90 | 1020.4 |
| 20260507082733 | 43 | 125 | 1.0 | 4.0 | 0.00 | 0.01 | 0.01 | 89 | 1020.3 |
| 20260507082235 | 43 | 127 | 2.0 | 4.0 | 0.01 | 0.01 | 0.01 | 89 | 1020.3 |
| 20260507081733 | 43 | 135 | 0.0 | 3.0 | 0.01 | 0.01 | 0.01 | 89 | 1020.3 |
| 20260507081235 | 43 | 128 | 2.0 | 3.0 | 0.01 | 0.01 | 0.01 | 89 | 1020.4 |
| 20260507080733 | 43 | 87 | 0.0 | 4.0 | 0.01 | 0.01 | 0.01 | 89 | 1020.4 |
| 20260507080233 | 43 | 99 | 2.0 | 4.0 | 0.01 | 0.01 | 0.01 | 89 | 1020.5 |
| 20260507075734 | 43 | 78 | 0.0 | 2.0 | 0.01 | 0.00 | 0.01 | 89 | 1020.6 |
| 20260507075233 | 43 | 89 | 0.0 | 0.0 | 0.01 | 0.00 | 0.01 | 88 | 1020.5 |
| 20260507075130 | 43 | 52 | 0.0 | 2.0 | 0.01 | 0.00 | 0.01 | 88 | 1020.7 |
| 20260507074233 | 43 | 63 | 0.0 | 5.0 | 0.01 | 0.00 | 0.01 | 88 | 1020.7 |
| 20260507074121 | 43 | 55 | 1.0 | 5.0 | 0.01 | 0.00 | 0.01 | 88 | 1020.4 |
| 20260507073614 | 43 | 86 | 3.0 | 5.0 | 0.01 | 0.00 | 0.01 | 87 | 1020.5 |
| 20260507072734 | 44 | 103 | 3.0 | 4.0 | 0.01 | 0.00 | 0.01 | 87 | 1020.9 |
| 20260507072233 | 44 | 83 | 0.0 | 3.0 | 0.00 | 0.00 | 0.00 | 87 | 1021.2 |
| 20260507072123 | 43 | 347 | 1.0 | 4.0 | 0.00 | 0.00 | 0.00 | 86 | 1021.5 |
| 20260507071233 | 44 | 21 | 0.0 | 4.0 | 0.00 | 0.00 | 0.00 | 85 | 1021.4 |
| 20260507070734 | 44 | 0 | 1.0 | 7.0 | 0.00 | 0.00 | 0.00 | 84 | 1021.6 |
| 20260507070234 | 44 | 0 | 3.0 | 10.0 | 0.00 | 0.00 | 0.00 | 83 | 1021.6 |
| 20260507065735 | 44 | 357 | 3.0 | 10.0 | 0.00 | 0.00 | 0.00 | 81 | 1021.9 |
| 20260507065619 | 45 | 353 | 3.0 | 10.0 | 0.00 | 0.00 | 0.00 | 80 | 1022.0 |
| 20260507064732 | 45 | 309 | 6.0 | 13.0 | 0.00 | 0.00 | 0.00 | 79 | 1021.7 |
| 20260507064232 | 45 | 353 | 6.0 | 13.0 | 0.00 | 0.00 | 0.00 | 78 | 1022.0 |
| 20260507063732 | 45 | 357 | 4.0 | 12.0 | 0.00 | 0.00 | 0.00 | 77 | 1021.7 |
| 20260507063234 | 45 | 345 | 3.0 | 12.0 | 0.00 | 0.00 | 0.00 | 76 | 1022.1 |
| 20260507062734 | 46 | 357 | 5.0 | 9.0 | 0.00 | 0.00 | 0.00 | 75 | 1022.1 |
| 20260507062233 | 46 | 338 | 5.0 | 9.0 | 0.00 | 0.00 | 0.00 | 74 | 1021.9 |
| 20260507061734 | 46 | 354 | 3.0 | 9.0 | 0.00 | 0.00 | 0.00 | 73 | 1021.5 |
| 20260507061233 | 46 | 11 | 4.0 | 9.0 | 0.00 | 0.00 | 0.00 | 73 | 1021.4 |
| 20260507060733 | 46 | 0 | 2.0 | 9.0 | 0.00 | 0.00 | 0.00 | 73 | 1021.4 |
| 20260507060235 | 46 | 34 | 3.0 | 7.0 | 0.00 | 0.00 | 0.00 | 72 | 1021.2 |
| 20260507055732 | 46 | 0 | 2.0 | 10.0 | 0.00 | 0.00 | 0.00 | 71 | 1021.1 |
| 20260507055234 | 46 | 7 | 4.0 | 10.0 | 0.00 | 0.00 | 0.00 | 71 | 1021.2 |
| 20260507054732 | 46 | 18 | 0.0 | 7.0 | 0.00 | 0.00 | 0.00 | 72 | 1021.0 |
| 20260507054232 | 46 | 13 | 2.0 | 7.0 | 0.00 | 0.00 | 0.00 | 72 | 1020.9 |
| 20260507053732 | 46 | 37 | 2.0 | 6.0 | 0.00 | 0.00 | 0.00 | 72 | 1020.9 |
| 20260507053232 | 46 | 14 | 3.0 | 14.0 | 0.00 | 0.00 | 0.00 | 71 | 1021.0 |
| 20260507052732 | 46 | 16 | 6.0 | 14.0 | 0.00 | 0.00 | 0.00 | 70 | 1021.0 |